Regional Weather Roundup
Issued by NWS Wakefield, VA

Home | Current Version | Previous Version | Text Only | Print | Product List | Glossary On
Versions: 1 2 3 4 5 6 7 8 9 10 11 12 13 14 15 16 17 18 19 20 21 22 23 24 25 26 27 28 29 30 31 32 33 34 35 36 37 38 39 40 41 42 43 44 45 46 47 48 49 50
076
ASUS41 KAKQ 221815
RWRAKQ

REGIONAL WEATHER ROUNDUP
NATIONAL WEATHER SERVICE WAKEFIELD VA
100 PM EST SUN JAN 22 2017

Note: "fair" indicates few or no clouds below 12,000 feet with no
significant weather and/or obstructions to visibility. * = Denotes
station may not report precipitation (e.g., rain,snow,etc.),
thunder or fog.

VAZ042-051-052>054-056-221900-
NORTHERN VIRGINIA

CITY           SKY/WX    TMP DP  RH WIND       PRES   REMARKS
WASH NATIONAL  CLOUDY    50  48  93 N7        29.65F
DULLES         CLOUDY    49  46  90 NE8       29.63F FOG
FORT BELVOIR   CLOUDY    50  47  89 VRB5      29.63F
QUANTICO       CLOUDY    47  47 100 E10       29.61F VSB 1
FREDERICKSBRG* CLOUDY    49  49 100 NE8       29.58F
STAFFORD*      CLOUDY    48  48 100 NE8       29.63F FOG
WARRENTON      CLOUDY    50  47  89 NE7       29.60F
CULPEPER*      CLOUDY    50  49  98 NE5       29.60F
MANASSAS*      NOT AVBL
LEESBURG*      CLOUDY    48  48 100 N7        29.64F
WINCHESTER     CLOUDY    45  45 100 CALM      29.61F FOG
FRONT ROYAL*   CLOUDY    45  45 100 NE6       29.60F
LURAY*         CLOUDY    46  46 100 N5        29.60F
$$

VAZ048-049-060>072-079>083-221900-
CENTRAL AND SOUTH CENTRAL VIRGINIA

CITY           SKY/WX    TMP DP  RH WIND       PRES   REMARKS
RICHMOND       CLOUDY    50  50 100 NE8       29.56F FOG
CHESTERFIELD*  CLOUDY    52  36  54 N5        29.57F
PETERSBURG*    CLOUDY    50  48  93 NE7       29.56F FOG
HANOVER        CLOUDY    49  48  97 VRB5      29.57F FOG
TAPPAHANNOCK*  CLOUDY    50  50 100 N6        29.59F
QUINTON*       CLOUDY    49  49 100 NE7       29.56F FOG
CHARLOTTSVILLE CLOUDY    53  50  89 W3        29.61F
GORDONSVILLE*  CLOUDY    49  49  99 NE8       29.56F
ORANGE*          N/A     50  50 100 N9        29.59F
LOUISA*        CLOUDY    52  52 100 NE7       29.56F FOG
BUMPASS*       CLOUDY    49  49 100 NE3       29.56F
FARMVILLE*     CLOUDY    52  52 100 CALM      29.60R FOG
CREWE*         CLOUDY    50  50 100 N3        29.60R VSB 1
FORT PICKETT*  CLOUDY   N/A N/A N/A W8        29.60R VSB 3/4
CHASE CITY*    CLOUDY    52  50  94 N6        29.58F
CLARKSVILLE*   CLOUDY    52  52 100 N3        29.58F
SOUTH HILL*    CLOUDY    52  52 100 N6        29.64R
LAWRENCEVILLE* CLOUDY    52  51  97 NW3       29.59R
EMPORIA*       CLOUDY    52  52 100 CALM      29.59F FOG
$$

VAZ088>098-221900-
SOUTHEAST VIRGINIA

CITY           SKY/WX    TMP DP  RH WIND       PRES   REMARKS
NORFOLK        CLOUDY    51  50  96 N3        29.57F FOG
VIRGINIA BEACH CLOUDY    50  49  96 N6        29.56F FOG
NORFOLK NAVAL  FOG       52  50  93 N3        29.59F VSB 1/4
WEST POINT*    CLOUDY    50  49  99 N6        29.58F
SALUDA*        CLOUDY    48  48 100 NW5       29.59F
NEWPORT NEWS   CLOUDY    51  50  96 NE7       29.56F FOG
LANGLEY AFB    CLOUDY    51  51 100 N5        29.57F FOG
FORT EUSTIS    CLOUDY    50  50 100 VRB3      29.52F FOG
WILLIAMSBURG*  CLOUDY    52  52 100 NE3       29.57F
HR EXEC AP*    CLOUDY    54  50  87 NE10      29.53F
FRANKLIN*      CLOUDY    51  50  98 NE10      29.54F FOG
US460-WAKEFLD  FOG       51  51 100 NE6       29.55F VSB 3/4
$$

VAZ020-022-025-037-045-221900-
WEST CENTRAL AND SOUTHWEST VIRGINIA

CITY           SKY/WX    TMP DP  RH WIND       PRES   REMARKS
STAUNTON*      CLOUDY    47  46  96 W5        29.66R
WAYNESBORO*    CLOUDY    46  45  96 SW6       29.65R VSB 1/4
HOT SPRINGS VA RAIN      46  46 100 SE5       29.60R VSB<1/4
LYNCHBURG      CLOUDY    50  49  96 N7        29.61F FOG
DANVILLE       CLOUDY    52  52 100 NE8       29.58F
SOUTH BOSTON*  CLOUDY    52  51  95 N5        29.59F
MARTINSVILLE   CLOUDY    53  51  94 NE3       29.60F
ROANOKE        FOG       52  52 100 S3        29.61F VSB 1
BLACKSBURG     DRIZZLE   52  52  99 NE5       29.59F
DUBLIN*        CLOUDY    53  53 100 E7        29.58F
MARION*        CLOUDY    54  52  95 NE9       29.56F
HILLSVILLE*    CLOUDY    51  51 100 SE3       29.55F FOG
RICHLANDS*     MOCLDY    59  49  70 E3        29.51F
WISE*          PTSUNNY   57  54  88 SE7       29.49F
ABINGDON*      CLOUDY    64  52  66 E9        29.48F
$$

MDZ021>025-VAZ099-100-221900-
SOUTHERN MARYLAND AND THE DELMARVA PENINSULA

CITY           SKY/WX    TMP DP  RH WIND       PRES   REMARKS
PATUXENT RIVER DRIZZLE   45  45 100 N12       29.61F FOG
BAY BRIDGE APT DRZL/FOG  45  45 100 N7        29.65S VSB 3/4
LEONARDTOWN    CLOUDY    46  45  93 N5        29.62F
DOVER          CLOUDY    48  48 100 N8        29.62F
GEORGETOWN     FOG       49  48  97 N9        29.63F VSB 1/4
EASTON         FOG       48  46  93 NE7       29.67  VSB 1
CAMBRIDGE      CLOUDY    46  46 100 N8        29.60F VSB 3/4
SALISBURY      FOG       50  50 100 NE14      29.59F VSB 1/4
OCEAN CITY     FOG       49  49 100 N10       29.61R VSB 1/2
WALLOPS ISLAND FOG       52  52 100 N10       29.56F VSB 3/4
ACCOMACK*      FOG       50  49  97 N8        29.56F VSB 1
$$

NCZ012>017-030>032-221900-
NORTH CENTRAL AND EASTERN NORTH CAROLINA

CITY           SKY/WX    TMP DP  RH WIND       PRES   REMARKS
ROANOKE RAPIDS CLOUDY    52  52 100 CALM      29.57S
RALEIGH        CLOUDY    55  53  93 NE3       29.57F
ELIZABETH CITY CLOUDY    55  54  96 N3        29.54F FOG
AHOSKIE*         N/A     52  52  99 CALM      29.56R FOG
EDENTON*       CLOUDY    58  56  91 NE7       29.52F
CURRITUCK*     CLOUDY    54  54 100 CALM      29.56F
KILL DEVIL HLS NOT AVBL
MANTEO         CLOUDY    57  57 100 CALM      29.55F
CAPE HATTERAS  RAIN      58  57  97 SW5       29.56F VSB 3/4
TARBORO*       NOT AVBL
GOLDSBORO      CLOUDY    59  59 100 N3        29.53F
WASHINGTON     CLOUDY    61  57  88 CALM        N/A
GREENVILLE     CLOUDY    57  57 100 CALM      29.59F FOG
NEW BERN       PTSUNNY   62  59  90 S5        29.56R
WILMINGTON     CLOUDY    61  60  97 VRB5      29.56F
$$

VAZ048-221900-
ELSEWHERE

CITY           SKY/WX    TMP DP  RH WIND       PRES   REMARKS
HARRISBURG PA  FOG       45  45 100 N3        29.65F VSB 1
BALTIMORE      CLOUDY    50  49  96 VRB6      29.64F
ANNAPOLIS      CLOUDY    47  45  93 N7        29.64F FOG
ANDREWS AFB    CLOUDY    48  47  99 NE7       29.62F
PHILADELPHIA   CLOUDY    50  47  89 NE6       29.66F
HENDERSON NC   CLOUDY    50  49  97 CALM      29.57F
GREENSBORO     CLOUDY    54  54 100 NE6       29.56F FOG
ROCKY MOUNT    CLOUDY    54  54 100 CALM      29.57F
$$

VAZ100-221900-
MARINE

STATION/POSITION TIME  TEMP    WIND        PRES    WAVE   SWELL
                       AIR SEA DIR/SP/G            HT/PER HT/PER
                 (UTC) (F)     (DEG/KT/KT) (MB)    (FT/S) (FT/S)
CAPE MAY NJ      1748   50 41   20/  5/  7 1002.8F
LEWES DE         1742   44 42  330/  8/ 11 1003.3F
OCEAN-CITY-INLET 1742   46 43   20/ 12/ 16 1003.2F
WACHAPREAGUE VA  1748   50 49  300/  3/  7 1000.7F
THOMAS POINT MD  1800   44 40   20/ 13/ 14   N/A
GOOSES REEF MD   1750   43      30/ 10/ 12 1004.2F
COVE POINT MD    1748   42      20/ 13/ 16 1003.6F
SOLOMONS ISLAND  1742   45 42  360/ 10/ 16   N/A
BISHOPS HEAD MD  1748   46 44   10/  9/ 13 1001.9F
PINEY POINT MD   1748           50/  7/ 10   N/A
POTOMAC MD       1750   45      10/ 14/ 16 1001.4F
CAMBRIDGE MD     1748   46 40   10/  9/  9 1002.3F
LEWISETTA VA     1748   46 44   10/  6/ 10 1002.1F
RAPPAHANNOCK LGT 1748          340/ 17/ 18 1001.7F
STINGRAY PT      1750   44     360/ 12/ 14 1002.3F
YORK RVR RNG VA  1748   48     320/  6/  7 1001.3F
YORKTOWN VA      1748   48 45  320/  8/  8 1001.4F
JAMESTOWN VA     1750   49     350/  4/  6   N/A
DOMINION TERM VA 1748   48     330/  7/  9 1001.5F
CHES BAY BRIDGE  1748   47 44  300/  5/  5 1001.6F
CAPE HENRY VA    1748   48     300/  8/ 11   N/A
WILLOUBY STN VA  1748   49     340/  1/  2 1002.4F
S CRANEY ISL VA  1748   49     320/  6/  7 1001.4F
CAPE HENRY BUOY  1742      48                N/A     4/ 7   2/12
OFFSHORE WE BUOY 1751      49                N/A     5/ 7   2/13
64NM E OF VA BCH 1750   51 57  260/ 10/ 14 1000.7F   5/ 7   5/ 7
DUCK PIER NC     1748   53 46  280/  3/  4 1000.3F
44100 DUCK FRF   1735      47                N/A     4/12   2/12
44056 DUCK FRF   1730      47                N/A     3/13   2/13
OREGON INLET NC  1742   51 50  190/  3/  5 1001.4F
HATTERAS NC      1748   58 54  200/  3/  5 1000.7F
DIAMOND SHLS NC  1750   64 72  220/ 10/ 14 1002.5F   4/11   3/11
CAPE LOOKOUT NC  1700   58      CALM  /  2 1002.1F
$$




USA.gov is the U.S. government's official web portal to all federal, state and local government web resources and services.